This is the latest recevied weather packets stored in our database for station/object KD8NVS-13. If no packets are shown the sender has not sent any weather packets the latest 10 day(s).
| Time | Temp. | Humidity | Pressure | Rain* | Wind** | Luminosity | Snow |
|---|---|---|---|---|---|---|---|
| 1777896867 | 14.44° C | 59% | 1000.5 hPa | 0 mm | - | 129 W/m² | - |
| 1777896564 | 13.89° C | 61% | 1000.1 hPa | 0 mm | - | 137 W/m² | - |
| 1777896261 | 13.89° C | 60% | 1000.1 hPa | 0 mm | - | 133 W/m² | - |
| 1777895959 | 13.89° C | 59% | 1000.1 hPa | 0 mm | - | 133 W/m² | - |
| 1777895657 | 13.89° C | 59% | 1000.5 hPa | 0 mm | - | 142 W/m² | - |
| 1777895354 | 13.33° C | 61% | 1000.1 hPa | 0 mm | - | 123 W/m² | - |
| 1777895052 | 13.33° C | 60% | 1000.5 hPa | 0 mm | - | 102 W/m² | - |
| 1777894748 | 12.78° C | 61% | 1000.1 hPa | 0 mm | - | 81 W/m² | - |
| 1777894445 | 12.78° C | 62% | 1000.1 hPa | 0 mm | - | 62 W/m² | - |
| 1777894143 | 12.22° C | 64% | 1000.1 hPa | 0 mm | - | 55 W/m² | - |
| 1777893839 | 12.22° C | 62% | 999.8 hPa | 0 mm | - | 49 W/m² | - |
| 1777893536 | 11.67° C | 64% | 999.8 hPa | 0 mm | - | 44 W/m² | - |
| 1777893232 | 11.67° C | 65% | 999.8 hPa | 0 mm | - | 39 W/m² | - |
| 1777892929 | 11.11° C | 65% | 999.8 hPa | 0 mm | - | 33 W/m² | - |
| 1777892625 | 11.11° C | 66% | 999.8 hPa | 0 mm | - | 29 W/m² | - |
| 1777892321 | 11.11° C | 66% | 999.8 hPa | 0 mm | - | 24 W/m² | - |
| 1777892017 | 11.11° C | 66% | 999.8 hPa | 0 mm | - | 18 W/m² | - |
| 1777891715 | 11.11° C | 66% | 999.3 hPa | 0 mm | - | 13 W/m² | - |
| 1777891411 | 10.56° C | 67% | 999.8 hPa | 0 mm | - | 9 W/m² | - |
| 1777891107 | 10.56° C | 67% | 999.8 hPa | 0 mm | - | 6 W/m² | - |
| 1777890802 | 10.56° C | 67% | 1000.1 hPa | 0 mm | - | 4 W/m² | - |
| 1777890499 | 10.56° C | 68% | 999.8 hPa | 0 mm | - | 3 W/m² | - |
| 1777890194 | 10.56° C | 66% | 1000.1 hPa | 0 mm | - | 2 W/m² | - |
| 1777889890 | 11.11° C | 66% | 1000.1 hPa | 0 mm | - | 1 W/m² | - |
| 1777889588 | 11.11° C | 66% | 1000.1 hPa | 0 mm | - | 0 W/m² | - |
* Rain latest hour (hover to see other rain measurements)
** Current wind speed in m/s (hover to see current wind gust speed)